TimeCDT,TemperatureF,Dew PointF,Humidity,Sea Level PressureIn,VisibilityMPH,Wind Direction,Wind SpeedMPH,Gust SpeedMPH,PrecipitationIn,Events,Conditions,WindDirDegrees,DateUTC
12:53 AM,52.0,48.0,86,29.98,7.0,Calm,Calm,-,N/A,,Clear,0,2013-09-25 05:53:00
1:53 AM,53.1,50.0,89,29.98,7.0,Calm,Calm,-,0.01,,Clear,0,2013-09-25 06:53:00
2:53 AM,52.0,48.9,89,29.98,7.0,Calm,Calm,-,N/A,,Clear,0,2013-09-25 07:53:00
3:38 AM,48.2,46.4,93,30.00,2.5,Calm,Calm,-,N/A,,Clear,0,2013-09-25 08:38:00
3:53 AM,48.9,48.0,97,30.00,4.0,Calm,Calm,-,N/A,,Clear,0,2013-09-25 08:53:00
4:25 AM,46.4,46.4,100,30.00,2.5,Calm,Calm,-,N/A,,Clear,0,2013-09-25 09:25:00
4:34 AM,46.4,46.4,100,30.00,3.0,Calm,Calm,-,N/A,,Clear,0,2013-09-25 09:34:00
4:53 AM,46.0,44.1,93,30.00,4.0,Calm,Calm,-,N/A,,Clear,0,2013-09-25 09:53:00
5:21 AM,46.4,44.6,93,30.01,6.0,Calm,Calm,-,N/A,,Mostly Cloudy,0,2013-09-25 10:21:00
5:53 AM,54.0,51.1,90,30.00,7.0,NE,4.6,-,N/A,,Overcast,40,2013-09-25 10:53:00
6:35 AM,50.0,46.4,87,30.01,3.0,North,8.1,-,N/A,,Mostly Cloudy,360,2013-09-25 11:35:00
6:50 AM,48.2,46.4,93,30.01,2.5,North,6.9,-,N/A,,Mostly Cloudy,350,2013-09-25 11:50:00
6:53 AM,48.9,46.9,93,30.01,2.0,North,5.8,-,N/A,,Mostly Cloudy,350,2013-09-25 11:53:00
6:59 AM,50.0,48.2,94,30.01,1.8,North,4.6,-,N/A,,Mostly Cloudy,350,2013-09-25 11:59:00
7:09 AM,50.0,48.2,94,30.02,1.8,NNW,4.6,-,N/A,,Overcast,330,2013-09-25 12:09:00
7:53 AM,50.0,48.0,93,30.02,1.8,Calm,Calm,-,N/A,,Overcast,0,2013-09-25 12:53:00
8:03 AM,51.8,48.2,88,30.02,2.0,Calm,Calm,-,N/A,,Overcast,0,2013-09-25 13:03:00
8:48 AM,55.4,51.8,88,30.02,0.5,NNE,3.5,-,N/A,,Overcast,30,2013-09-25 13:48:00
8:53 AM,55.9,53.1,90,30.02,0.5,NE,5.8,-,N/A,,Overcast,50,2013-09-25 13:53:00
9:06 AM,55.4,53.6,94,30.03,0.2,NNE,6.9,-,N/A,Fog,Fog,30,2013-09-25 14:06:00
9:36 AM,55.4,53.6,94,30.03,0.5,NE,9.2,-,N/A,Fog,Fog,50,2013-09-25 14:36:00
9:53 AM,55.9,54.0,93,30.02,0.8,NE,8.1,-,N/A,,Overcast,50,2013-09-25 14:53:00
10:00 AM,57.2,55.4,94,30.03,1.0,NE,6.9,-,N/A,,Overcast,40,2013-09-25 15:00:00
10:45 AM,60.8,55.4,82,30.03,1.0,NNE,5.8,-,N/A,,Haze,30,2013-09-25 15:45:00
10:53 AM,61.0,55.9,83,30.03,3.0,NE,5.8,-,N/A,,Haze,40,2013-09-25 15:53:00
11:12 AM,60.8,53.6,77,30.03,6.0,East,5.8,-,N/A,,Haze,80,2013-09-25 16:12:00
11:53 AM,62.1,55.0,78,30.02,5.0,North,4.6,-,N/A,,Haze,10,2013-09-25 16:53:00
12:53 PM,64.9,53.1,65,30.01,10.0,Variable,3.5,-,N/A,,Mostly Cloudy,0,2013-09-25 17:53:00
1:53 PM,66.0,53.1,63,29.99,10.0,NE,5.8,-,N/A,,Clear,50,2013-09-25 18:53:00
2:53 PM,66.9,51.1,57,29.98,10.0,Variable,3.5,-,N/A,,Clear,0,2013-09-25 19:53:00
3:53 PM,68.0,51.1,55,29.97,10.0,Variable,4.6,-,N/A,,Clear,0,2013-09-25 20:53:00
4:53 PM,66.9,51.1,57,29.97,10.0,NE,3.5,-,N/A,,Clear,50,2013-09-25 21:53:00
5:53 PM,66.0,52.0,60,29.97,10.0,Calm,Calm,-,N/A,,Clear,0,2013-09-25 22:53:00
6:53 PM,61.0,51.1,70,29.98,10.0,ESE,6.9,-,N/A,,Clear,110,2013-09-25 23:53:00
7:53 PM,59.0,50.0,72,29.99,10.0,SE,4.6,-,N/A,,Clear,130,2013-09-26 00:53:00
8:53 PM,55.0,48.9,80,29.99,10.0,SSE,3.5,-,N/A,,Clear,150,2013-09-26 01:53:00
9:53 PM,51.1,48.0,89,30.00,10.0,Calm,Calm,-,N/A,,Clear,0,2013-09-26 02:53:00
10:53 PM,48.9,46.9,93,30.00,7.0,Calm,Calm,-,N/A,,Clear,0,2013-09-26 03:53:00
11:50 PM,46.4,44.6,93,30.01,1.2,Calm,Calm,-,N/A,,Clear,0,2013-09-26 04:50:00
11:53 PM,46.9,44.1,90,30.01,1.0,Calm,Calm,-,N/A,,Clear,0,2013-09-26 04:53:00